This is the latest recevied weather packets stored in our database for station/object AF5AA. If no packets are shown the sender has not sent any weather packets the latest 10 day(s).
| Time | Temp. | Humidity | Pressure | Rain* | Wind** | Luminosity | Snow |
|---|---|---|---|---|---|---|---|
| 1777836447 | 25.56° C | 43% | 1019.4 hPa | 0 mm | - | 106 W/m² | - |
| 1777836143 | 25.56° C | 43% | 1019.5 hPa | 0 mm | - | 57 W/m² | - |
| 1777835840 | 25° C | 45% | 1019.4 hPa | 0 mm | - | 76 W/m² | - |
| 1777835537 | 25° C | 44% | 1019.6 hPa | 0 mm | - | 229 W/m² | - |
| 1777835234 | 25.56° C | 44% | 1019.6 hPa | 0 mm | - | 66 W/m² | - |
| 1777834930 | 25.56° C | 42% | 1019.7 hPa | 0 mm | - | 58 W/m² | - |
| 1777834628 | 25.56° C | 42% | 1019.6 hPa | 0 mm | - | 661 W/m² | - |
| 1777834323 | 26.11° C | 41% | 1020 hPa | 0 mm | - | 442 W/m² | - |
| 1777834017 | 26.11° C | 43% | 1020 hPa | 0 mm | - | 79 W/m² | - |
| 1777833714 | 25.56° C | 41% | 1020 hPa | 0 mm | - | 175 W/m² | - |
| 1777833410 | 25.56° C | 43% | 1020.3 hPa | 0 mm | - | 64 W/m² | - |
| 1777833108 | 25.56° C | 44% | 1020.3 hPa | 0 mm | - | 189 W/m² | - |
| 1777832806 | 25.56° C | 43% | 1020.2 hPa | 0 mm | - | 113 W/m² | - |
| 1777832504 | 25.56° C | 44% | 1020.4 hPa | 0 mm | - | 560 W/m² | - |
| 1777832201 | 25° C | 42% | 1020.5 hPa | 0 mm | - | 319 W/m² | - |
| 1777831898 | 25° C | 42% | 1020.8 hPa | 0 mm | - | 45 W/m² | - |
| 1777831595 | 25° C | 44% | 1021 hPa | 0 mm | - | 80 W/m² | - |
| 1777831292 | 24.44° C | 44% | 1020.9 hPa | 0 mm | - | 174 W/m² | - |
| 1777830989 | 24.44° C | 45% | 1021 hPa | 0 mm | - | 90 W/m² | - |
| 1777830686 | 24.44° C | 43% | 1021 hPa | 0 mm | - | 48 W/m² | - |
| 1777830383 | 24.44° C | 44% | 1021 hPa | 0 mm | - | 76 W/m² | - |
| 1777830080 | 25° C | 45% | 1021.3 hPa | 0 mm | - | 47 W/m² | - |
| 1777829775 | 24.44° C | 44% | 1021 hPa | 0 mm | - | 45 W/m² | - |
| 1777829472 | 24.44° C | 48% | 1021.3 hPa | 0 mm | - | 38 W/m² | - |
| 1777829169 | 24.44° C | 44% | 1021.4 hPa | 0 mm | - | 119 W/m² | - |
* Rain latest hour (hover to see other rain measurements)
** Current wind speed in m/s (hover to see current wind gust speed)